Temp
89 89 89 89 89 90 90 90 91 90 90 92 92 91 91 92 92 93 93 92 91 91 91 90 90 89 90 90 89 88 89 88 89 89 88 88 87 88 87 88 88 88
88 89 89 90 89 90 90 91 90 90 90 90 92 93 92 92 93 93 93 92 92 91 91 91 90 89 89 90 89 88 87 88 87 91 88 87 87 88 89 88 88 88
89 89 89 90 91 91 93 92 91 91 92 92 92 93 94 94 93 92 92 93 92 92 91 90 90 89 89 90 89 89 88 87 87 91 88 87 88 87 87 91 89 89
89 89 90 91 92 91 92 91 91 91 92 92 92 94 95 95 93 93 92 91 91 91 91 91 90 91 89 90 89 89 89 87 88 89 88 87 87 87 87 88 89 89
89 89 91 91 92 91 91 91 92 92 93 92 94 93 92 92 92 93 92 91 91 91 91 91 91 91 89 89 89 88 89 88 88 88 87 86 87 87 88 88 87 88
90 89 90 91 91 91 91 92 92 93 93 95 93 94 94 93 93 93 92 92 93 93 93 93 91 92 91 89 88 88 89 89 89 87 87 86 88 88 89 88 87 86
91 90 91 92 92 92 91 91 92 92 94 94 93 93 94 93 92 92 92 92 93 91 93 91 90 90 91 89 88 87 88 88 89 88 86 87 86 87 88 87 86 86
92 92 92 92 92 92 91 92 92 92 93 93 94 93 93 94 92 93 92 93 93 91 91 92 90 89 92 90 88 87 88 90 90 88 86 86 86 85 86 87 86 85
93 92 92 92 93 93 94 95 94 93 93 93 94 95 94 93 93 93 91 91 91 91 90 91 90 90 91 90 88 87 87 89 90 89 87 86 86 85 86 87 86 85
91 92 94 94 94 95 95 96 96 95 94 94 95 97 95 93 93 93 92 90 90 90 90 90 90 90 90 90 89 88 88 87 88 88 88 87 87 87 87 86 86 85
94 95 94 94 95 96 97 97 98 98 96 95 96 96 97 95 92 93 91 90 90 90 90 90 90 90 89 90 90 90 89 89 89 88 88 88 87 87 86 86 86 86
93 94 94 95 96 97 98 98 99 98 98 96 96 96 96 97 94 93 92 90 90 91 91 90 90 90 89 89 91 91 89 90 90 89 89 88 88 88 88 88 87 86
93 93 94 96 94 96 98 98 99 100 100 98 97 96 97 97 97 93 92 92 90 91 91 90 90 90 89 89 90 90 89 89 90 90 89 89 89 89 90 89 89 88
93 93 93 93 94 93 95 98 99 99 97 97 96 96 97 97 98 95 94 93 92 91 91 91 90 90 89 89 89 90 90 89 89 90 90 89 89 90 91 91 90 90
92 93 94 93 93 93 94 95 97 96 96 96 95 96 97 98 98 98 94 92 92 91 91 91 91 90 91 90 89 89 90 90 89 90 90 89 89 90 90 90 91 91
92 92 91 92 92 91 91 93 96 96 97 96 95 96 95 94 95 95 97 94 92 91 91 91 91 91 83 74 78 89 89 91 90 89 89 89 88 88 90 90 92 93
91 91 91 90 91 91 91 91 92 94 93 93 93 94 93 92 93 95 96 96 93 93 92 92 92 91 73 69 70 74 87 89 89 88 89 89 89 88 87 89 90 91
91 91 90 90 90 90 90 90 91 92 92 92 92 93 92 93 93 93 93 95 95 94 94 93 93 78 69 68 69 69 75 89 91 90 90 89 89 89 89 89 90 91
91 90 90 89 89 90 90 90 90 90 91 92 92 92 93 91 91 92 92 93 94 92 93 94 95 75 67 66 68 68 69 80 92 91 90 90 89 89 89 88 88 89
90 90 89 89 90 90 90 89 89 89 91 93 93 92 91 91 92 91 91 91 92 92 91 94 95 74 65 65 66 66 67 74 91 91 91 91 90 90 90 89 88 88
90 90 89 89 89 89 89 89 89 89 90 92 93 93 91 90 91 90 91 91 93 94 93 95 97 71 63 63 63 63 65 70 88 90 90 90 90 90 89 90 89 88
91 90 89 89 89 89 89 88 88 88 88 90 91 93 93 93 92 93 92 92 92 93 93 92 96 69 62 62 62 62 64 78 86 87 88 89 89 89 89 89 89 89
92 91 90 89 89 89 88 88 88 88 89 90 91 92 93 92 91 93 92 93 92 91 91 91 95 75 59 60 60 60 65 81 84 86 86 87 88 89 89 89 89 89
92 91 90 89 89 88 88 90 91 91 91 90 90 92 93 94 94 93 93 93 93 92 93 92 94 78 57 59 59 58 68 82 84 85 85 85 87 88 89 88 88 79
93 92 91 91 89 89 90 90 90 90 91 91 93 93 93 93 93 93 93 93 96 95 80 89 94 82 56 59 57 57 68 83 84 84 84 85 86 86 88 88 88 80
94 91 91 91 90 90 91 91 92 93 92 93 92 93 93 94 94 94 94 94 95 95 95 94 93 93 72 57 56 56 60 81 85 84 84 84 85 85 86 86 87 88
MSLP
1010.63 1010.83 1011.19 1011.47 1011.63 1011.75 1011.95 1012.23 1012.27 1012.55 1012.67 1012.63 1012.91 1012.99 1013.11 1013.03 1013.03 1013.15 1013.39 1013.67 1013.95 1014.23 1014.35 1014.55 1014.71 1014.99 1015.11 1015.27 1015.47 1015.79 1015.99 1016.15 1016.19 1016.31 1016.67 1016.95 1017.31 1017.47 1017.63 1017.63 1017.59 1017.55
1010.15 1010.35 1010.59 1010.83 1011.15 1011.27 1011.39 1011.43 1011.75 1011.99 1012.23 1012.27 1012.15 1012.27 1012.39 1012.51 1012.67 1012.87 1013.11 1013.39 1013.59 1013.91 1013.99 1014.23 1014.47 1014.71 1014.91 1015.07 1015.31 1015.67 1015.95 1016.03 1016.31 1015.91 1016.47 1016.83 1017.03 1017.19 1017.31 1017.35 1017.43 1017.27
1009.59 1009.91 1010.23 1010.47 1010.63 1010.83 1010.95 1011.03 1011.23 1011.43 1011.63 1011.71 1011.75 1011.79 1011.95 1012.03 1012.39 1012.51 1012.71 1012.95 1013.27 1013.47 1013.75 1013.95 1014.19 1014.43 1014.63 1014.75 1014.95 1015.35 1015.67 1015.91 1016.15 1015.83 1016.15 1016.63 1016.75 1017.03 1016.99 1016.91 1017.11 1017.19
1009.03 1009.23 1009.51 1009.71 1009.91 1010.27 1010.43 1010.71 1010.87 1010.99 1011.07 1011.35 1011.47 1011.39 1011.51 1011.59 1011.87 1012.23 1012.47 1012.67 1012.95 1013.19 1013.31 1013.59 1013.87 1014.07 1014.39 1014.51 1014.75 1015.07 1015.19 1015.51 1015.59 1015.63 1015.95 1016.23 1016.51 1016.67 1016.83 1016.71 1016.79 1016.91
1008.35 1008.67 1008.87 1009.11 1009.31 1009.55 1009.91 1010.31 1010.47 1010.55 1010.67 1010.71 1010.87 1011.03 1011.27 1011.47 1011.67 1011.91 1012.23 1012.47 1012.63 1012.91 1013.03 1013.31 1013.51 1013.75 1014.03 1014.31 1014.47 1014.87 1014.95 1015.27 1015.27 1015.47 1015.83 1016.19 1016.27 1016.47 1016.51 1016.59 1016.75 1016.95
1007.71 1007.99 1008.27 1008.63 1008.87 1009.23 1009.55 1009.79 1009.91 1009.99 1010.15 1010.35 1010.47 1010.51 1010.79 1011.07 1011.35 1011.55 1011.75 1012.15 1012.27 1012.47 1012.67 1012.87 1013.19 1013.35 1013.55 1013.95 1014.23 1014.51 1014.63 1014.87 1014.91 1015.27 1015.63 1015.91 1015.99 1015.99 1016.19 1016.35 1016.63 1016.87
1007.15 1007.47 1007.79 1007.95 1008.35 1008.59 1009.03 1009.23 1009.35 1009.47 1009.55 1009.63 1009.79 1010.23 1010.27 1010.67 1011.03 1011.19 1011.35 1011.59 1011.83 1012.11 1012.23 1012.51 1012.83 1013.07 1013.19 1013.55 1013.95 1014.27 1014.31 1014.47 1014.51 1014.87 1015.39 1015.59 1015.71 1015.87 1015.87 1016.07 1016.35 1016.67
1006.31 1006.63 1007.03 1007.39 1007.87 1008.15 1008.51 1008.71 1008.87 1009.03 1009.03 1009.23 1009.59 1009.71 1009.83 1010.19 1010.51 1010.71 1010.91 1011.15 1011.47 1011.75 1011.95 1012.11 1012.39 1012.75 1012.87 1013.11 1013.67 1013.95 1014.15 1014.11 1014.27 1014.51 1014.99 1015.31 1015.43 1015.75 1015.71 1015.71 1015.95 1016.39
1005.63 1006.11 1006.51 1006.95 1007.39 1007.63 1007.91 1008.07 1008.27 1008.47 1008.55 1008.91 1009.07 1009.19 1009.35 1009.59 1009.91 1010.19 1010.51 1010.79 1011.11 1011.35 1011.63 1011.87 1012.07 1012.39 1012.51 1012.83 1013.19 1013.55 1013.83 1013.83 1013.83 1014.11 1014.59 1014.99 1015.27 1015.43 1015.43 1015.43 1015.75 1016.03
1005.27 1005.47 1005.91 1006.31 1006.75 1006.87 1007.19 1007.27 1007.43 1007.75 1007.95 1008.31 1008.47 1008.51 1008.91 1009.15 1009.31 1009.67 1010.11 1010.51 1010.87 1011.11 1011.35 1011.59 1011.79 1011.99 1012.23 1012.43 1012.75 1013.07 1013.31 1013.51 1013.51 1013.67 1013.95 1014.31 1014.63 1014.87 1015.03 1015.19 1015.39 1015.67
1004.55 1004.79 1005.19 1005.55 1005.83 1005.95 1006.23 1006.47 1006.67 1006.91 1007.23 1007.59 1007.83 1008.07 1008.19 1008.63 1009.07 1009.19 1009.67 1010.15 1010.55 1010.79 1011.03 1011.27 1011.43 1011.59 1011.91 1012.11 1012.27 1012.47 1012.75 1012.95 1013.07 1013.27 1013.51 1013.75 1013.99 1014.23 1014.43 1014.67 1014.91 1015.07
1003.87 1004.19 1004.43 1004.75 1004.99 1005.15 1005.35 1005.59 1005.83 1006.19 1006.51 1006.87 1007.11 1007.55 1007.75 1007.95 1008.55 1008.91 1009.19 1009.71 1009.99 1010.23 1010.43 1010.71 1010.87 1011.11 1011.43 1011.63 1011.83 1011.99 1012.27 1012.43 1012.55 1012.75 1012.95 1013.19 1013.43 1013.63 1013.83 1014.03 1014.31 1014.47
1003.31 1003.59 1003.75 1004.07 1004.35 1004.51 1004.59 1004.95 1005.27 1005.47 1005.79 1006.23 1006.47 1006.87 1007.23 1007.55 1007.75 1008.43 1008.67 1009.03 1009.43 1009.63 1009.91 1010.15 1010.43 1010.63 1010.91 1011.15 1011.31 1011.51 1011.83 1012.11 1012.19 1012.31 1012.47 1012.67 1012.83 1012.95 1013.11 1013.31 1013.55 1013.75
1002.67 1002.91 1003.27 1003.51 1003.67 1004.03 1004.27 1004.39 1004.63 1004.91 1005.19 1005.47 1005.87 1006.43 1006.67 1006.91 1007.19 1007.71 1008.11 1008.35 1008.67 1008.99 1009.19 1009.43 1009.83 1010.11 1010.31 1010.55 1010.75 1010.95 1011.27 1011.59 1011.75 1011.87 1012.03 1012.19 1012.31 1012.39 1012.47 1012.63 1012.83 1012.99
1002.15 1002.55 1002.83 1003.15 1003.47 1003.79 1004.03 1004.15 1004.27 1004.51 1004.83 1005.15 1005.47 1005.87 1006.03 1006.23 1006.39 1006.75 1007.43 1007.95 1008.11 1008.39 1008.67 1008.79 1009.11 1009.39 1009.55 1009.83 1010.27 1010.51 1010.59 1010.95 1011.23 1011.39 1011.51 1011.75 1011.91 1011.95 1011.99 1012.07 1012.15 1012.31
1001.79 1002.11 1002.51 1002.79 1003.23 1003.55 1003.75 1003.83 1003.99 1004.27 1004.55 1004.87 1005.15 1005.35 1005.63 1005.87 1006.07 1006.27 1006.63 1007.27 1007.75 1007.95 1008.11 1008.27 1008.43 1008.51 1008.71 1009.11 1009.39 1009.75 1010.11 1010.31 1010.59 1010.87 1011.03 1011.19 1011.51 1011.71 1011.67 1011.67 1011.67 1011.67
1001.51 1001.83 1002.11 1002.55 1002.71 1003.03 1003.35 1003.71 1003.83 1003.95 1004.27 1004.63 1004.87 1005.11 1005.39 1005.63 1005.91 1006.19 1006.31 1006.51 1007.07 1007.39 1007.67 1007.75 1007.75 1007.71 1008.11 1008.63 1008.99 1009.31 1009.55 1009.87 1010.15 1010.43 1010.63 1010.79 1010.95 1011.23 1011.43 1011.39 1011.27 1011.23
1001.11 1001.47 1001.91 1002.19 1002.47 1002.79 1002.99 1003.27 1003.51 1003.75 1004.03 1004.31 1004.63 1004.95 1005.15 1005.27 1005.71 1005.87 1005.95 1006.07 1006.35 1006.67 1006.95 1006.95 1006.99 1006.99 1007.55 1008.03 1008.51 1008.87 1009.11 1009.31 1009.51 1009.83 1010.07 1010.27 1010.39 1010.51 1010.67 1010.75 1010.83 1010.83
1000.71 1001.19 1001.55 1001.87 1002.11 1002.31 1002.63 1003.03 1003.39 1003.63 1003.87 1004.07 1004.31 1004.39 1004.75 1005.19 1005.39 1005.55 1005.75 1005.71 1005.83 1006.19 1006.31 1006.23 1006.27 1006.35 1006.99 1007.47 1007.91 1008.27 1008.59 1008.79 1008.87 1009.03 1009.31 1009.51 1009.63 1009.75 1009.87 1010.07 1010.19 1010.35
1000.23 1000.67 1001.11 1001.35 1001.67 1002.07 1002.43 1002.79 1003.11 1003.35 1003.35 1003.43 1003.79 1004.11 1004.47 1004.75 1004.95 1005.19 1005.27 1005.43 1005.43 1005.55 1005.71 1005.59 1005.55 1005.71 1006.35 1006.79 1007.23 1007.67 1007.95 1008.23 1008.15 1008.35 1008.51 1008.59 1008.75 1008.91 1009.07 1009.27 1009.51 1009.79
999.91 1000.23 1000.67 1001.03 1001.39 1001.75 1002.11 1002.39 1002.59 1002.83 1003.11 1003.19 1003.35 1003.67 1004.07 1004.39 1004.55 1004.79 1004.79 1004.87 1004.95 1005.03 1005.23 1005.27 1004.87 1005.11 1005.75 1006.27 1006.71 1007.15 1007.51 1007.87 1007.79 1007.79 1007.87 1007.95 1007.95 1008.07 1008.27 1008.51 1008.71 1008.95
999.39 999.91 1000.35 1000.71 1001.07 1001.39 1001.71 1001.99 1002.11 1002.35 1002.71 1002.79 1003.07 1003.19 1003.31 1003.63 1003.91 1003.95 1004.27 1004.51 1004.51 1004.63 1004.75 1004.83 1004.39 1004.67 1005.27 1005.79 1006.23 1006.79 1007.27 1007.71 1007.51 1007.63 1007.59 1007.51 1007.51 1007.51 1007.67 1007.79 1007.87 1008.11
998.99 999.47 999.95 1000.27 1000.55 1001.03 1001.35 1001.59 1001.87 1002.19 1002.39 1002.43 1002.95 1002.95 1003.15 1003.27 1003.39 1003.51 1003.55 1003.83 1004.03 1004.11 1004.31 1004.23 1004.07 1004.19 1004.87 1005.35 1005.79 1006.27 1007.07 1007.19 1007.19 1007.31 1007.39 1007.35 1007.23 1007.15 1007.23 1007.23 1007.27 1007.35
998.51 998.95 999.47 999.83 1000.15 1000.47 1000.67 1000.91 1001.19 1001.47 1001.83 1001.87 1002.39 1002.55 1002.59 1002.51 1002.67 1002.99 1002.99 1003.03 1003.23 1003.39 1003.35 1003.75 1003.67 1003.71 1004.43 1004.95 1005.35 1005.83 1006.11 1006.39 1006.63 1006.87 1007.03 1007.15 1007.07 1006.87 1006.79 1006.75 1006.67 1006.87
998.07 998.51 998.91 999.31 999.63 999.79 1000.03 1000.51 1000.71 1000.91 1001.03 1001.27 1001.55 1001.83 1001.99 1001.95 1002.15 1002.39 1002.51 1002.51 1002.47 1002.63 1002.87 1003.31 1003.27 1003.35 1003.91 1004.39 1004.99 1005.43 1005.67 1005.59 1005.83 1006.19 1006.67 1006.63 1006.67 1006.71 1006.35 1006.23 1006.23 1006.43
997.43 997.99 998.35 998.75 999.15 999.43 999.63 999.91 1000.11 1000.43 1000.71 1000.99 1001.19 1001.31 1001.63 1001.67 1001.71 1001.87 1002.15 1002.15 1002.03 1002.23 1002.31 1002.47 1002.75 1002.71 1003.23 1003.87 1004.43 1004.91 1005.07 1004.91 1005.03 1005.63 1005.91 1005.83 1005.99 1006.11 1006.23 1005.95 1005.79 1005.91
Wind_Speed
14 13 13 13 12 11 12 13 12 12 11 11 11 10 11 10 11 10 12 11 12 11 11 10 10 9 9 8 7 7 6 7 6 7 7 8 8 9 9 10 10 8
17 15 12 12 11 11 12 13 13 12 12 11 10 10 10 10 12 11 11 12 12 12 11 11 11 10 10 9 9 8 7 7 8 6 8 9 8 9 10 11 11 8
17 16 16 16 15 16 16 13 13 12 12 12 12 10 10 11 11 12 11 12 12 12 12 11 12 11 11 10 9 9 8 8 9 9 8 9 9 8 9 10 10 11
18 18 17 17 15 15 14 13 13 12 12 12 13 12 11 10 11 13 12 13 12 12 12 12 12 12 11 11 10 9 10 9 9 9 8 8 9 9 9 8 9 9
20 18 17 16 15 14 13 14 16 15 15 13 12 12 11 11 11 12 12 13 12 12 12 13 13 12 12 11 11 10 10 10 10 10 9 9 9 9 9 9 9 10
18 17 17 16 15 15 15 16 16 16 16 15 14 12 13 13 12 13 13 14 14 14 13 13 13 13 13 12 11 11 10 10 11 11 11 11 11 10 9 9 10 10
20 19 20 18 18 17 16 15 15 15 15 14 13 13 13 14 14 14 13 14 14 14 14 13 13 13 12 12 12 12 11 11 11 13 12 11 10 11 11 10 10 10
21 20 19 17 19 18 18 16 16 15 15 14 15 14 14 15 15 14 14 14 15 14 13 13 13 13 14 12 13 13 13 11 11 12 13 12 11 12 12 10 11 11
20 19 19 20 21 19 19 19 17 16 15 15 15 14 15 14 15 15 14 14 14 13 13 13 13 14 13 13 13 14 14 13 13 13 14 14 14 13 13 12 12 12
19 19 21 22 21 19 21 20 18 17 16 17 17 15 15 15 15 15 14 14 14 14 13 13 13 14 14 13 14 14 14 14 13 13 14 14 15 14 14 13 13 13
22 21 22 23 23 20 23 22 21 18 17 18 18 17 17 15 14 14 14 15 14 15 14 14 14 14 14 14 14 13 14 14 14 14 14 15 15 14 14 14 14 14
22 22 23 24 23 22 23 22 21 20 19 17 18 18 18 16 16 14 14 15 15 15 15 15 14 14 15 15 15 14 14 14 14 14 14 14 15 15 15 14 14 15
22 21 21 22 21 21 19 20 20 20 20 19 18 18 18 18 17 16 14 15 15 15 15 15 15 15 14 15 15 14 14 15 15 15 15 14 15 16 16 15 15 15
20 20 19 18 18 17 18 19 19 19 18 17 16 18 18 19 19 17 16 15 16 16 16 15 15 15 15 15 15 15 15 15 15 15 15 15 15 15 16 16 16 16
16 17 17 16 17 16 17 17 17 17 16 16 15 16 15 17 18 18 17 17 16 16 16 16 16 16 14 15 16 16 16 16 16 15 15 15 15 15 16 16 16 16
16 15 16 16 16 16 16 16 16 16 17 16 16 17 15 14 15 16 18 18 17 17 17 15 15 14 15 20 17 15 16 14 14 14 15 14 14 14 15 16 17 16
16 16 16 17 17 16 15 15 16 15 14 14 14 15 15 13 14 16 17 17 18 17 18 16 15 14 19 20 20 19 15 15 14 14 14 14 15 14 14 15 15 16
16 16 16 16 15 16 16 16 15 14 14 14 15 16 14 14 16 16 15 16 16 17 18 17 16 17 20 21 21 21 18 14 14 14 14 15 15 15 14 14 15 15
15 16 16 16 17 16 15 15 15 15 15 16 17 16 15 15 15 16 16 16 16 17 18 18 17 17 21 23 23 23 23 19 14 15 15 15 16 16 16 15 14 14
16 17 17 16 15 15 15 15 16 17 17 16 15 15 16 16 17 17 16 16 16 16 16 17 18 16 22 24 24 25 24 20 16 16 16 16 17 17 16 16 16 14
17 17 16 15 15 16 16 17 17 16 17 16 16 16 16 16 17 17 16 17 18 18 16 17 17 18 22 24 24 25 25 21 17 16 15 15 16 16 16 17 16 15
17 16 15 15 16 17 17 18 17 17 17 15 14 14 14 15 15 16 17 18 17 18 18 18 17 17 21 24 25 24 25 15 16 17 16 15 15 16 16 15 16 16
17 17 16 16 16 17 17 17 16 16 15 13 15 15 15 16 16 16 15 16 18 18 19 17 17 15 21 23 24 25 19 13 15 15 15 16 15 15 15 16 16 17
16 16 16 17 17 18 18 17 16 14 15 14 16 17 17 17 15 15 16 16 18 20 19 18 17 14 21 22 24 25 22 15 14 15 16 15 15 15 14 14 17 19
16 16 16 17 17 17 16 16 16 15 14 14 15 15 15 14 14 14 15 15 17 19 16 18 18 14 20 22 24 24 22 14 15 14 15 15 15 15 16 15 16 14
15 16 16 16 16 15 14 14 13 13 15 15 14 14 14 14 14 14 16 15 15 16 15 18 18 14 15 23 24 24 27 16 14 14 16 17 16 15 15 15 16 14
Wind_Direction
199 198 199 200 203 205 204 203 201 202 204 205 206 206 208 206 209 206 200 200 199 203 201 198 194 198 197 196 197 203 211 200 207 194 200 204 204 213 206 208 210 221
198 199 198 199 200 204 208 206 204 204 204 208 211 207 206 207 203 207 202 202 198 203 201 199 197 195 196 194 193 199 200 200 205 200 200 206 212 210 214 208 211 214
196 196 198 198 199 202 206 206 206 206 206 206 208 211 208 205 205 201 203 201 201 202 201 200 199 197 198 198 192 197 199 197 201 209 196 204 210 211 217 209 210 209
194 197 197 200 201 201 203 205 205 206 206 205 207 207 209 209 204 202 201 201 201 201 198 200 202 201 201 199 193 198 199 198 199 207 202 201 209 214 213 219 210 209
193 195 198 199 201 201 199 205 207 204 206 206 205 205 205 210 205 204 201 200 201 200 200 198 199 200 196 198 195 199 198 197 199 200 206 202 205 210 215 215 217 212
193 194 195 198 198 198 201 204 207 207 206 205 205 202 204 204 208 207 203 203 201 202 201 200 197 199 196 195 195 199 198 200 195 196 203 208 205 204 212 209 215 217
191 193 195 196 198 197 201 204 206 208 206 207 201 205 203 203 205 208 206 204 205 203 204 199 197 198 196 193 195 196 201 203 202 193 201 207 207 206 207 210 207 214
192 192 194 194 196 197 200 202 205 204 206 203 204 202 203 204 203 205 207 205 208 204 205 202 197 197 198 196 196 197 200 200 207 198 197 205 205 207 207 209 203 207
192 192 191 193 197 198 200 201 202 204 203 203 203 202 202 206 203 205 203 205 206 205 202 204 198 197 200 200 198 198 199 201 202 200 198 201 203 206 207 206 205 203
192 193 194 196 198 199 201 203 202 202 201 203 203 205 202 204 207 203 202 201 204 204 202 202 200 198 200 203 202 201 201 203 201 200 200 200 202 204 205 205 207 203
193 194 195 198 200 201 203 203 204 203 202 203 203 207 209 202 204 204 202 200 202 202 201 201 201 200 200 204 206 205 205 204 202 200 201 201 202 204 204 205 206 207
193 195 197 199 201 203 204 204 204 205 204 203 205 205 207 208 201 202 202 200 199 200 201 200 199 200 200 203 205 206 207 208 205 203 202 201 202 202 204 206 208 208
194 196 197 199 201 204 204 204 206 207 207 205 203 206 204 208 205 200 200 200 198 199 200 199 199 200 201 202 205 206 207 209 209 205 204 202 203 204 206 207 209 208
195 195 196 199 200 200 203 205 206 208 207 206 201 205 206 207 208 201 199 200 199 199 199 197 198 201 201 201 204 206 206 208 211 209 206 205 205 206 208 209 210 210
192 192 196 197 199 199 203 205 206 205 205 205 204 205 207 208 208 205 199 199 199 198 197 198 200 201 201 201 202 204 206 208 209 212 210 208 208 208 210 212 213 213
188 189 192 195 196 198 200 201 204 203 205 206 206 207 206 207 208 207 204 200 199 198 198 199 202 203 198 195 197 202 204 207 208 211 213 211 210 211 212 213 215 217
186 190 191 193 196 196 196 199 201 199 202 204 205 206 206 202 208 209 211 204 201 200 200 202 203 204 189 189 193 197 203 206 207 208 211 214 213 212 215 214 216 218
188 188 189 193 193 195 195 195 199 201 200 200 202 206 204 207 207 210 211 209 204 205 206 206 207 199 184 187 189 192 197 205 209 209 208 212 215 214 214 215 215 216
186 186 189 190 192 192 192 191 195 200 202 202 202 201 202 205 207 207 209 211 210 208 211 210 213 192 183 185 189 191 195 201 211 210 210 211 212 213 214 212 213 215
186 187 189 190 189 187 188 191 194 198 201 201 200 200 202 205 206 207 208 209 213 213 213 216 217 189 183 184 189 191 194 198 211 211 213 213 212 212 213 213 210 211
188 188 188 186 185 186 188 192 196 198 199 200 201 201 202 203 205 206 208 209 211 215 217 219 223 191 182 185 189 191 194 197 208 214 216 216 215 213 212 212 211 210
188 187 185 184 186 187 191 196 197 197 197 197 202 205 205 206 208 211 210 211 213 215 219 222 224 192 183 185 188 190 191 196 206 214 218 219 217 215 212 211 212 210
190 189 187 187 188 189 195 198 197 197 197 195 202 207 206 208 210 211 213 213 214 215 218 223 226 192 183 186 187 188 184 199 204 212 219 222 222 218 215 214 212 210
192 192 191 190 189 193 196 198 198 197 199 195 202 206 209 211 210 212 214 216 217 218 217 221 227 196 181 187 189 184 185 194 199 208 216 219 224 222 219 220 215 207
192 194 194 193 195 197 196 197 197 198 199 199 205 209 214 214 213 216 218 219 221 223 217 221 229 211 180 187 189 185 189 196 198 205 212 216 218 220 222 221 222 208
193 194 196 197 198 197 197 198 197 198 200 201 205 208 211 216 216 220 221 222 223 224 222 220 225 223 180 188 186 188 192 195 200 201 210 213 213 218 219 221 222 222